Hourly Data Report for May 18, 2020

MIRAMICHI RCS
NEW BRUNSWICK
Current Station Operator: ECCC - MSC

47°00'34.000" N
65°27'54.000" W
33.00 m
8100989
71744
ACQ

Download Data

Hourly Data (May 2020)
Hourly Data Report for May 18, 2020
TIME
LST
Temp Definition
°C
Dew Point Definition
°C
Rel Hum Definition
%
Precip. Amount Definition
mm

Wind Dir Definition
10's deg

Wind Spd Definition
km/h
Visibility Definition
km
Stn Press Definition
kPa
Hmdx Definition


Wind Chill Definition


Weather Definition


00:00 7.8 -2.3 49 LegendMM 27 4   101.73     LegendNANA
01:00 7.4 -2.5 50 LegendMM 25 6   101.74     LegendNANA
02:00 7.8 -2.6 48 LegendMM 32 11   101.71     LegendNANA
03:00 7.7 -2.2 50 LegendMM 32 11   101.72     LegendNANA
04:00 6.4 -1.9 55 LegendMM 36 7   101.75     LegendNANA
05:00 5.6 -1.7 59 LegendMM 3 7   101.81     LegendNANA
06:00 6.2 -0.8 61 LegendMM 35 6   101.83     LegendNANA
07:00 8.1 0.7 59 LegendMM 36 4   101.89     LegendNANA
08:00 9.9 1.8 57 LegendMM 3 9   101.93     LegendNANA
09:00 11.8 2.6 53 LegendMM 5 11   101.93     LegendNANA
10:00 13.0 4.3 55 LegendMM 8 17   101.97     LegendNANA
11:00 12.7 3.5 53 LegendMM 9 19   101.98     LegendNANA
12:00 13.5 3.7 52 LegendMM 5 14   101.99     LegendNANA
13:00 13.6 0.8 42 LegendMM 6 12   101.98     LegendNANA
14:00 13.1 2.7 49 LegendMM 6 15   102.00     LegendNANA
15:00 10.4 4.2 66 LegendMM 5 25   102.00     LegendNANA
16:00 10.6 3.0 59 LegendMM 6 18   102.06     LegendNANA
17:00 9.7 2.7 62 LegendMM 5 16   102.12     LegendNANA
18:00 9.3 3.0 65 LegendMM 6 16   102.19     LegendNANA
19:00 8.6 2.8 67 LegendMM 5 12   102.26     LegendNANA
20:00 7.8 3.2 73 LegendMM 6 10   102.30     LegendNANA
21:00 6.7 3.3 79 LegendMM 6 7   102.36     LegendNANA
22:00 5.7 3.0 83 LegendMM 5 5   102.36     LegendNANA
23:00 3.7 2.1 89 LegendMM 34 3   102.41     LegendNANA

Notes on Data Quality.

Legend

  • E = Estimated
  • M = Missing
  • NA = Not Available*
  • [empty] = Indicates an unobserved value
Date modified: